Location: Bletchingley
(51.2333°N, 0.1000°W)
Time: 11:34:26
(UTC+00:00)

Cosmos 2297 Rocket - Pass Details

Date: 18 September 2020
Orbit: 838 x 845 km, 71.0° (Epoch: 23 October)

Event Time Altitude Azimuth Distance (km) Brightness Sun altitude
Rises 19:02:05 0° 253° (WSW) 3,393 6.5 -9.4°
Reaches altitude 10° 19:04:59 10° 267° (W) 2,462 6.0 -9.8°
Maximum altitude 19:09:32 25° 321° (NW) 1,665 4.5 -10.5°
Drops below altitude 10° 19:14:08 10° 15° (NNE) 2,475 4.7 -11.2°
Sets 19:17:04 0° 29° (NNE) 3,415 5.2 -11.6°
